| time (UTC) | temp C | wind direction | speed KPH | gust KPH | rain 1hr cm | rain 24hr cm | rain mn cm | humidity % | barometer mb |
| 20260506223737 | 20 | 120 | 0.0 | 0.0 | 0.00 | 0.00 | 0.00 | 48 | 1009.7 |
| 20260506222237 | 20 | 120 | 0.0 | 0.0 | 0.00 | 0.00 | 0.00 | 48 | 1009.6 |
| 20260506220736 | 20 | 120 | 0.0 | 0.0 | 0.00 | 0.00 | 0.00 | 48 | 1009.7 |
| 20260506215234 | 20 | 120 | 0.0 | 0.0 | 0.00 | 0.00 | 0.00 | 48 | 1009.7 |
| 20260506213733 | 20 | 120 | 0.0 | 0.0 | 0.00 | 0.00 | 0.00 | 48 | 1009.8 |
| 20260506212232 | 20 | 120 | 0.0 | 0.0 | 0.00 | 0.00 | 0.00 | 48 | 1009.7 |
| 20260506210731 | 20 | 120 | 0.0 | 0.0 | 0.00 | 0.00 | 0.00 | 48 | 1009.7 |
| 20260506205230 | 20 | 120 | 0.0 | 0.0 | 0.00 | 0.00 | 0.00 | 48 | 1009.6 |
| 20260506203729 | 20 | 120 | 0.0 | 0.0 | 0.00 | 0.00 | 0.00 | 48 | 1009.6 |
| 20260506202227 | 20 | 120 | 0.0 | 0.0 | 0.00 | 0.00 | 0.00 | 48 | 1009.5 |
| 20260506200726 | 20 | 120 | 0.0 | 0.0 | 0.00 | 0.00 | 0.00 | 48 | 1009.5 |
| 20260506195224 | 20 | 120 | 0.0 | 0.0 | 0.00 | 0.00 | 0.00 | 48 | 1009.5 |
| 20260506193724 | 20 | 120 | 0.0 | 0.0 | 0.00 | 0.00 | 0.00 | 48 | 1009.5 |
| 20260506192223 | 20 | 120 | 0.0 | 0.0 | 0.00 | 0.00 | 0.00 | 48 | 1009.4 |
| 20260506190722 | 20 | 120 | 0.0 | 0.0 | 0.00 | 0.00 | 0.00 | 48 | 1009.3 |
| 20260506185221 | 20 | 120 | 0.0 | 0.0 | 0.00 | 0.00 | 0.00 | 48 | 1009.1 |
| 20260506183721 | 23 | 127 | 0.0 | 0.0 | 0.00 | 0.00 | 0.00 | 45 | 1008.8 |
| 20260506180714 | 23 | 127 | 0.0 | 0.0 | 0.00 | 0.00 | 0.00 | 45 | 1008.6 |
| 20260506175212 | 23 | 127 | 0.0 | 0.0 | 0.00 | 0.00 | 0.00 | 45 | 1008.5 |
| 20260506173711 | 23 | 127 | 0.0 | 0.0 | 0.00 | 0.00 | 0.00 | 45 | 1008.5 |
| 20260506172210 | 23 | 127 | 0.0 | 0.0 | 0.00 | 0.00 | 0.00 | 45 | 1008.4 |
| 20260506170709 | 23 | 127 | 0.0 | 0.0 | 0.00 | 0.00 | 0.00 | 45 | 1008.4 |
| 20260506163702 | 23 | 127 | 0.0 | 0.0 | 0.00 | 0.00 | 0.00 | 45 | 1008.5 |
| 20260506162201 | 23 | 127 | 0.0 | 0.0 | 0.00 | 0.00 | 0.00 | 45 | 1008.4 |
| 20260506160700 | 23 | 150 | 0.0 | 0.0 | 0.03 | 0.00 | 0.00 | 43 | 1008.4 |
| 20260506155159 | 27 | 12 | 0.0 | 0.0 | 0.03 | 0.00 | 0.00 | 42 | 1008.7 |
| 20260506153658 | 27 | 12 | 0.0 | 0.0 | 0.03 | 0.00 | 0.00 | 42 | 1008.9 |
| 20260506152157 | 26 | 76 | 0.0 | 0.0 | 0.00 | 0.00 | 0.00 | 31 | 1008.8 |
| 20260506150656 | 26 | 76 | 0.0 | 0.0 | 0.00 | 0.00 | 0.00 | 31 | 1008.9 |
| 20260506145155 | 26 | 76 | 0.0 | 0.0 | 0.00 | 0.00 | 0.00 | 31 | 1009.0 |
| 20260506143654 | 26 | 76 | 0.0 | 0.0 | 0.00 | 0.00 | 0.00 | 31 | 1009.2 |
| 20260506142153 | 26 | 76 | 0.0 | 0.0 | 0.00 | 0.00 | 0.00 | 31 | 1009.1 |
| 20260506140652 | 26 | 76 | 0.0 | 0.0 | 0.00 | 0.00 | 0.00 | 31 | 1008.8 |
| 20260506135151 | 26 | 76 | 0.0 | 0.0 | 0.00 | 0.00 | 0.00 | 31 | 1008.8 |
| 20260506133649 | 26 | 76 | 0.0 | 0.0 | 0.00 | 0.00 | 0.00 | 31 | 1008.8 |
| 20260506130648 | 26 | 76 | 0.0 | 0.0 | 0.00 | 0.00 | 0.00 | 31 | 1008.6 |
| 20260506125146 | 26 | 76 | 0.0 | 0.0 | 0.00 | 0.00 | 0.00 | 31 | 1008.8 |
| 20260506123645 | 26 | 76 | 0.0 | 0.0 | 0.00 | 0.00 | 0.00 | 31 | 1008.8 |
| 20260506122144 | 26 | 76 | 0.0 | 0.0 | 0.00 | 0.00 | 0.00 | 31 | 1008.9 |
| 20260506120643 | 26 | 76 | 0.0 | 0.0 | 0.00 | 0.00 | 0.00 | 31 | 1008.9 |
| 20260506115142 | 26 | 76 | 0.0 | 0.0 | 0.00 | 0.00 | 0.00 | 31 | 1008.7 |
| 20260506113641 | 26 | 76 | 0.0 | 0.0 | 0.00 | 0.00 | 0.00 | 31 | 1008.9 |
| 20260506112140 | 26 | 76 | 0.0 | 0.0 | 0.00 | 0.00 | 0.00 | 31 | 1008.7 |
| 20260506110639 | 26 | 192 | 0.0 | 1.6 | 0.00 | 0.00 | 0.00 | 30 | 1008.8 |
| 20260506105137 | 27 | 132 | 1.6 | 1.6 | 0.00 | 0.00 | 0.00 | 26 | 1008.7 |
| 20260506103636 | 27 | 222 | 0.0 | 0.0 | 0.00 | 0.00 | 0.00 | 27 | 1008.8 |
| 20260506102135 | 27 | 222 | 3.2 | 4.8 | 0.00 | 0.00 | 0.00 | 27 | 1008.7 |
| 20260506100634 | 28 | 192 | 4.8 | 4.8 | 0.00 | 0.00 | 0.00 | 27 | 1008.6 |
| 20260506095132 | 25 | 82 | 1.6 | 1.6 | 0.00 | 0.00 | 0.00 | 31 | 1008.7 |
| 20260506093632 | 23 | 104 | 0.0 | 0.0 | 0.00 | 0.00 | 0.00 | 36 | 1008.8 |
| 20260506092130 | 23 | 104 | 0.0 | 0.0 | 0.00 | 0.00 | 0.00 | 36 | 1009.0 |
| 20260506090629 | 23 | 104 | 3.2 | 3.2 | 0.00 | 0.00 | 0.00 | 36 | 1009.1 |
| 20260506085129 | 22 | 216 | 3.2 | 3.2 | 0.00 | 0.00 | 0.00 | 36 | 1009.0 |
| 20260506083628 | 22 | 131 | 3.2 | 3.2 | 0.00 | 0.00 | 0.00 | 38 | 1008.9 |
| 20260506082127 | 22 | 342 | 3.2 | 3.2 | 0.00 | 0.00 | 0.00 | 38 | 1008.8 |
| 20260506080626 | 21 | 198 | 3.2 | 3.2 | 0.00 | 0.00 | 0.00 | 38 | 1008.8 |
| 20260506072123 | 20 | 76 | 1.6 | 3.2 | 0.00 | 0.00 | 0.00 | 39 | 1008.7 |
| 20260506070622 | 20 | 175 | 0.0 | 0.0 | 0.00 | 0.00 | 0.00 | 40 | 1008.9 |
| 20260506062118 | 18 | 53 | 0.0 | 0.0 | 0.00 | 0.00 | 0.00 | 45 | 1008.5 |
| 20260506060617 | 18 | 53 | 0.0 | 0.0 | 0.00 | 0.00 | 0.00 | 45 | 1008.5 |
| 20260506050612 | 17 | 102 | 0.0 | 0.0 | 0.00 | 0.00 | 0.00 | 48 | 1008.5 |
| 20260506045111 | 17 | 102 | 0.0 | 0.0 | 0.00 | 0.00 | 0.00 | 48 | 1008.7 |
| 20260506043609 | 16 | 126 | 0.0 | 0.0 | 0.00 | 0.00 | 0.00 | 47 | 1008.8 |
| 20260506042108 | 16 | 246 | 1.6 | 1.6 | 0.00 | 0.00 | 0.00 | 44 | 1008.8 |
| 20260506040608 | 16 | 156 | 0.0 | 0.0 | 0.00 | 0.00 | 0.00 | 45 | 1008.8 |
| 20260506035107 | 15 | 117 | 0.0 | 0.0 | 0.00 | 0.00 | 0.00 | 45 | 1008.7 |
| 20260506033605 | 15 | 117 | 0.0 | 0.0 | 0.00 | 0.00 | 0.00 | 45 | 1008.7 |
| 20260506032104 | 15 | 354 | 0.0 | 0.0 | 0.00 | 0.00 | 0.00 | 44 | 1008.7 |
| 20260506030603 | 15 | 119 | 0.0 | 0.0 | 0.00 | 0.00 | 0.00 | 43 | 1008.8 |
| 20260506025101 | 15 | 119 | 0.0 | 0.0 | 0.00 | 0.00 | 0.00 | 43 | 1008.7 |
| 20260506023601 | 15 | 119 | 0.0 | 0.0 | 0.00 | 0.00 | 0.00 | 43 | 1008.9 |
| 20260506022059 | 15 | 119 | 0.0 | 0.0 | 0.00 | 0.00 | 0.00 | 43 | 1008.9 |
| 20260506020558 | 15 | 119 | 0.0 | 0.0 | 0.00 | 0.00 | 0.00 | 43 | 1009.0 |
| 20260506015057 | 15 | 119 | 0.0 | 0.0 | 0.00 | 0.00 | 0.00 | 43 | 1009.0 |
| 20260506013556 | 15 | 119 | 0.0 | 0.0 | 0.00 | 0.00 | 0.00 | 43 | 1009.1 |
| 20260506012055 | 16 | 129 | 0.0 | 0.0 | 0.00 | 0.00 | 0.00 | 41 | 1009.1 |
| 20260506010553 | 16 | 129 | 0.0 | 0.0 | 0.00 | 0.00 | 0.00 | 41 | 1009.1 |
| 20260506005053 | 16 | 129 | 0.0 | 0.0 | 0.00 | 0.00 | 0.00 | 41 | 1009.1 |
| 20260506003552 | 16 | 129 | 0.0 | 0.0 | 0.00 | 0.00 | 0.00 | 41 | 1009.1 |
| 20260506002050 | 16 | 129 | 0.0 | 0.0 | 0.00 | 0.00 | 0.00 | 41 | 1009.1 |
| 20260506000549 | 16 | 129 | 0.0 | 0.0 | 0.00 | 0.00 | 0.00 | 41 | 1009.2 |
| 20260505235048 | 16 | 129 | 0.0 | 0.0 | 0.00 | 0.00 | 0.00 | 41 | 1009.2 |
| 20260505233547 | 16 | 129 | 0.0 | 0.0 | 0.00 | 0.00 | 0.00 | 41 | 1009.2 |
| 20260505232046 | 16 | 129 | 0.0 | 0.0 | 0.00 | 0.00 | 0.00 | 41 | 1009.3 |
| 20260505230545 | 16 | 129 | 0.0 | 0.0 | 0.00 | 0.00 | 0.00 | 41 | 1009.4 |
| 20260505225044 | 17 | 144 | 0.0 | 0.0 | 0.00 | 0.00 | 0.00 | 40 | 1009.5 |